Location: Allen Fire Department Station 4
(33.1073°N, 96.6988°W)
Time: 08:15:40
(UTC+00:00)

Cosmos 1763 Rocket - Pass Details

Date: 29 June 2022
Orbit: 732 x 780 km, 74.0° (Epoch: 09 August)

Event Time Altitude Azimuth Distance (km) Brightness Sun altitude
Exits shadow 08:01:15 60° 51° (NE) 869 3.9 -29.6°
Drops below altitude 10° 08:05:38 10° 22° (NNE) 2,305 6.9 -29.3°
Sets 08:08:02 0° 20° (NNE) 3,241 8.0 -29.0°
